| time (UTC) | temp C | wind direction | speed KPH | gust KPH | rain 1hr cm | rain 24hr cm | rain mn cm | humidity % | barometer mb |
| 20260506062503 | 21 | 216 | 1.6 | 9.7 | 0.00 | 0.00 | 0.00 | 63 | 1035.8 |
| 20260506062003 | 21 | 251 | 4.8 | 12.9 | 0.00 | 0.00 | 0.00 | 63 | 1035.9 |
| 20260506061502 | 20 | 242 | 3.2 | 12.9 | 0.00 | 0.00 | 0.00 | 63 | 1036.1 |
| 20260506061003 | 20 | 202 | 1.6 | 4.8 | 0.00 | 0.00 | 0.00 | 63 | 1036.1 |
| 20260506060544 | 20 | 261 | 0.0 | 4.8 | 0.00 | 0.00 | 0.00 | 62 | 1036.3 |
| 20260506051002 | 20 | 281 | 0.0 | 0.0 | 0.00 | 0.00 | 0.00 | 56 | 1036.2 |
| 20260506050503 | 20 | 281 | 0.0 | 0.0 | 0.00 | 0.00 | 0.00 | 55 | 1036.2 |
| 20260506045002 | 21 | 281 | 0.0 | 3.2 | 0.00 | 0.00 | 0.00 | 55 | 1036.0 |
| 20260506044503 | 20 | 147 | 0.0 | 3.2 | 0.00 | 0.00 | 0.00 | 55 | 1035.8 |
| 20260506044003 | 20 | 264 | 0.0 | 1.6 | 0.00 | 0.00 | 0.00 | 55 | 1035.8 |
| 20260506043502 | 21 | 264 | 0.0 | 3.2 | 0.00 | 0.00 | 0.00 | 54 | 1035.8 |
| 20260506043003 | 21 | 264 | 0.0 | 3.2 | 0.00 | 0.00 | 0.00 | 53 | 1036.0 |
| 20260506042502 | 21 | 247 | 0.0 | 0.0 | 0.00 | 0.00 | 0.00 | 53 | 1036.2 |
| 20260506042003 | 21 | 247 | 0.0 | 3.2 | 0.00 | 0.00 | 0.00 | 53 | 1036.2 |
| 20260506041502 | 21 | 247 | 0.0 | 3.2 | 0.00 | 0.00 | 0.00 | 52 | 1036.1 |
| 20260506041024 | 21 | 284 | 0.0 | 0.0 | 0.00 | 0.00 | 0.00 | 52 | 1036.1 |
| 20260506040502 | 21 | 284 | 0.0 | 0.0 | 0.00 | 0.00 | 0.00 | 52 | 1036.2 |
| 20260506040003 | 21 | 284 | 0.0 | 8.0 | 0.00 | 0.00 | 0.00 | 52 | 1036.1 |
| 20260506035503 | 21 | 284 | 0.0 | 8.0 | 0.00 | 0.00 | 0.00 | 51 | 1036.0 |
| 20260506035002 | 21 | 63 | 0.0 | 0.0 | 0.00 | 0.00 | 0.00 | 51 | 1035.9 |
| 20260506034503 | 21 | 63 | 0.0 | 3.2 | 0.00 | 0.00 | 0.00 | 50 | 1035.9 |
| 20260506034002 | 21 | 63 | 0.0 | 3.2 | 0.00 | 0.00 | 0.00 | 51 | 1035.9 |
| 20260506033503 | 21 | 240 | 0.0 | 0.0 | 0.00 | 0.00 | 0.00 | 50 | 1035.8 |
| 20260506033003 | 21 | 240 | 0.0 | 1.6 | 0.00 | 0.00 | 0.00 | 50 | 1035.9 |
| 20260506032502 | 21 | 240 | 0.0 | 6.4 | 0.00 | 0.00 | 0.00 | 50 | 1036.1 |
| 20260506032003 | 21 | 272 | 1.6 | 6.4 | 0.00 | 0.00 | 0.00 | 49 | 1036.1 |
| 20260506031502 | 21 | 254 | 0.0 | 3.2 | 0.00 | 0.00 | 0.00 | 50 | 1035.9 |
| 20260506031003 | 21 | 307 | 0.0 | 3.2 | 0.00 | 0.00 | 0.00 | 50 | 1035.9 |
| 20260506030524 | 21 | 289 | 0.0 | 4.8 | 0.00 | 0.00 | 0.00 | 50 | 1036.0 |
| 20260506030044 | 21 | 268 | 1.6 | 4.8 | 0.00 | 0.00 | 0.00 | 50 | 1036.0 |
| 20260506025503 | 21 | 229 | 0.0 | 0.0 | 0.00 | 0.00 | 0.00 | 50 | 1035.9 |
| 20260506025002 | 21 | 229 | 0.0 | 0.0 | 0.00 | 0.00 | 0.00 | 50 | 1035.8 |
| 20260506024524 | 21 | 229 | 0.0 | 1.6 | 0.00 | 0.00 | 0.00 | 50 | 1035.8 |
| 20260506024003 | 21 | 251 | 0.0 | 4.8 | 0.00 | 0.00 | 0.00 | 50 | 1035.8 |
| 20260506023524 | 21 | 283 | 1.6 | 4.8 | 0.00 | 0.00 | 0.00 | 49 | 1035.8 |
| 20260506023003 | 21 | 285 | 0.0 | 0.0 | 0.00 | 0.00 | 0.00 | 50 | 1035.8 |
| 20260506022502 | 21 | 285 | 0.0 | 1.6 | 0.00 | 0.00 | 0.00 | 49 | 1035.7 |
| 20260506022003 | 21 | 285 | 0.0 | 1.6 | 0.00 | 0.00 | 0.00 | 49 | 1035.4 |
| 20260506021502 | 21 | 292 | 0.0 | 1.6 | 0.00 | 0.00 | 0.00 | 50 | 1035.2 |
| 20260506021003 | 21 | 195 | 0.0 | 3.2 | 0.00 | 0.00 | 0.00 | 50 | 1035.2 |
| 20260506020503 | 21 | 195 | 0.0 | 4.8 | 0.00 | 0.00 | 0.00 | 49 | 1035.1 |
| 20260506020002 | 21 | 259 | 0.0 | 4.8 | 0.00 | 0.00 | 0.00 | 48 | 1035.1 |
| 20260506015524 | 21 | 194 | 0.0 | 8.0 | 0.00 | 0.00 | 0.00 | 50 | 1035.2 |
| 20260506015002 | 21 | 264 | 3.2 | 8.0 | 0.00 | 0.00 | 0.00 | 48 | 1035.3 |
| 20260506014503 | 21 | 267 | 1.6 | 9.7 | 0.00 | 0.00 | 0.00 | 50 | 1035.3 |
| 20260506014002 | 21 | 311 | 1.6 | 9.7 | 0.00 | 0.00 | 0.00 | 50 | 1035.1 |
| 20260506013523 | 21 | 78 | 0.0 | 8.0 | 0.00 | 0.00 | 0.00 | 50 | 1035.3 |
| 20260506013003 | 21 | 351 | 0.0 | 1.6 | 0.00 | 0.00 | 0.00 | 49 | 1035.2 |
| 20260506012502 | 21 | 254 | 0.0 | 1.6 | 0.00 | 0.00 | 0.00 | 50 | 1035.0 |
| 20260506012024 | 21 | 254 | 0.0 | 4.8 | 0.00 | 0.00 | 0.00 | 50 | 1035.0 |
| 20260506011503 | 21 | 252 | 0.0 | 14.5 | 0.00 | 0.00 | 0.00 | 50 | 1035.0 |
| 20260506011002 | 21 | 299 | 1.6 | 14.5 | 0.00 | 0.00 | 0.00 | 51 | 1034.8 |
| 20260506010503 | 21 | 253 | 1.6 | 4.8 | 0.00 | 0.00 | 0.00 | 51 | 1034.9 |
| 20260506010002 | 21 | 275 | 0.0 | 4.8 | 0.00 | 0.00 | 0.00 | 51 | 1034.9 |
| 20260506005503 | 21 | 275 | 0.0 | 4.8 | 0.00 | 0.00 | 0.00 | 50 | 1034.8 |
| 20260506005003 | 21 | 269 | 1.6 | 6.4 | 0.00 | 0.00 | 0.00 | 52 | 1034.6 |
| 20260506004503 | 21 | 316 | 1.6 | 6.4 | 0.00 | 0.00 | 0.00 | 51 | 1034.8 |
| 20260506004003 | 21 | 133 | 0.0 | 4.8 | 0.00 | 0.00 | 0.00 | 52 | 1034.9 |
| 20260506003502 | 21 | 133 | 0.0 | 4.8 | 0.00 | 0.00 | 0.00 | 52 | 1035.0 |
| 20260506003003 | 21 | 251 | 0.0 | 0.0 | 0.00 | 0.00 | 0.00 | 50 | 1034.8 |
| 20260506002503 | 21 | 251 | 0.0 | 8.0 | 0.00 | 0.00 | 0.00 | 51 | 1034.8 |
| 20260506002003 | 21 | 279 | 1.6 | 8.0 | 0.00 | 0.00 | 0.00 | 48 | 1034.9 |
| 20260506001502 | 21 | 268 | 0.0 | 3.2 | 0.00 | 0.00 | 0.00 | 53 | 1035.1 |
| 20260506001003 | 21 | 306 | 0.0 | 3.2 | 0.00 | 0.00 | 0.00 | 54 | 1035.0 |
| 20260506000502 | 22 | 26 | 0.0 | 3.2 | 0.00 | 0.00 | 0.00 | 53 | 1034.9 |
| 20260506000002 | 22 | 170 | 0.0 | 1.6 | 0.00 | 0.00 | 0.00 | 53 | 1034.9 |
| 20260505235502 | 22 | 170 | 0.0 | 4.8 | 0.00 | 0.00 | 0.00 | 51 | 1035.1 |
| 20260505235024 | 22 | 257 | 0.0 | 8.0 | 0.00 | 0.00 | 0.00 | 54 | 1035.2 |
| 20260505234503 | 22 | 334 | 3.2 | 8.0 | 0.00 | 0.00 | 0.00 | 48 | 1035.3 |
| 20260505234024 | 22 | 32 | 0.0 | 4.8 | 0.00 | 0.00 | 0.00 | 54 | 1035.2 |
| 20260505233502 | 22 | 215 | 0.0 | 3.2 | 0.00 | 0.00 | 0.00 | 54 | 1035.1 |
| 20260505233003 | 22 | 215 | 0.0 | 3.2 | 0.00 | 0.00 | 0.00 | 54 | 1035.2 |
| 20260505232524 | 22 | 269 | 0.0 | 3.2 | 0.00 | 0.00 | 0.00 | 55 | 1035.1 |
| 20260505232002 | 22 | 322 | 0.0 | 1.6 | 0.00 | 0.00 | 0.00 | 55 | 1035.1 |
| 20260505231524 | 22 | 318 | 0.0 | 1.6 | 0.00 | 0.00 | 0.00 | 53 | 1035.1 |
| 20260505231002 | 22 | 291 | 0.0 | 1.6 | 0.00 | 0.00 | 0.00 | 52 | 1035.1 |
| 20260505230525 | 23 | 340 | 0.0 | 0.0 | 0.00 | 0.00 | 0.00 | 52 | 1035.1 |
| 20260505230002 | 23 | 340 | 0.0 | 0.0 | 0.00 | 0.00 | 0.00 | 51 | 1035.0 |
| 20260505225503 | 23 | 312 | 0.0 | 1.6 | 0.00 | 0.00 | 0.00 | 51 | 1035.0 |
| 20260505225002 | 23 | 316 | 0.0 | 1.6 | 0.00 | 0.00 | 0.00 | 50 | 1035.0 |
| 20260505224503 | 23 | 296 | 0.0 | 0.0 | 0.00 | 0.00 | 0.00 | 48 | 1034.9 |
| 20260505224002 | 23 | 296 | 0.0 | 1.6 | 0.00 | 0.00 | 0.00 | 46 | 1034.9 |
| 20260505223524 | 23 | 296 | 0.0 | 1.6 | 0.00 | 0.00 | 0.00 | 48 | 1034.9 |
| 20260505223003 | 23 | 285 | 0.0 | 0.0 | 0.00 | 0.00 | 0.00 | 47 | 1035.0 |
| 20260505222502 | 23 | 285 | 0.0 | 0.0 | 0.00 | 0.00 | 0.00 | 46 | 1035.0 |
| 20260505222003 | 23 | 285 | 0.0 | 0.0 | 0.00 | 0.00 | 0.00 | 46 | 1035.0 |
| 20260505221502 | 23 | 285 | 0.0 | 0.0 | 0.00 | 0.00 | 0.00 | 43 | 1035.1 |
| 20260505221003 | 23 | 285 | 0.0 | 1.6 | 0.00 | 0.00 | 0.00 | 44 | 1035.2 |
| 20260505220502 | 24 | 285 | 0.0 | 4.8 | 0.00 | 0.00 | 0.00 | 41 | 1035.2 |
| 20260505220003 | 25 | 252 | 0.0 | 4.8 | 0.00 | 0.00 | 0.00 | 41 | 1035.2 |
| 20260505215503 | 24 | 327 | 1.6 | 4.8 | 0.00 | 0.00 | 0.00 | 41 | 1035.2 |
| 20260505215024 | 24 | 276 | 1.6 | 4.8 | 0.00 | 0.00 | 0.00 | 40 | 1035.2 |
| 20260505214503 | 23 | 297 | 1.6 | 6.4 | 0.00 | 0.00 | 0.00 | 41 | 1035.2 |
| 20260505214002 | 23 | 284 | 3.2 | 6.4 | 0.00 | 0.00 | 0.00 | 39 | 1035.0 |
| 20260505213503 | 23 | 271 | 1.6 | 8.0 | 0.00 | 0.00 | 0.00 | 39 | 1034.8 |
| 20260505213002 | 24 | 265 | 4.8 | 8.0 | 0.00 | 0.00 | 0.00 | 39 | 1035.1 |
| 20260505212503 | 24 | 272 | 4.8 | 8.0 | 0.00 | 0.00 | 0.00 | 39 | 1035.1 |
| 20260505212003 | 24 | 271 | 3.2 | 9.7 | 0.00 | 0.00 | 0.00 | 38 | 1035.1 |
| 20260505211503 | 25 | 174 | 1.6 | 9.7 | 0.00 | 0.00 | 0.00 | 38 | 1035.3 |
| 20260505211003 | 25 | 300 | 3.2 | 16.1 | 0.00 | 0.00 | 0.00 | 38 | 1035.4 |
| 20260505210502 | 25 | 247 | 4.8 | 16.1 | 0.00 | 0.00 | 0.00 | 37 | 1035.4 |
| 20260505210003 | 24 | 276 | 1.6 | 11.3 | 0.00 | 0.00 | 0.00 | 40 | 1035.6 |
| 20260505205503 | 24 | 302 | 0.0 | 11.3 | 0.00 | 0.00 | 0.00 | 40 | 1035.4 |
| 20260505205003 | 24 | 282 | 1.6 | 14.5 | 0.00 | 0.00 | 0.00 | 39 | 1035.3 |
| 20260505204502 | 24 | 255 | 6.4 | 14.5 | 0.00 | 0.00 | 0.00 | 38 | 1035.6 |
| 20260505204003 | 25 | 257 | 6.4 | 14.5 | 0.00 | 0.00 | 0.00 | 37 | 1035.7 |
| 20260505203503 | 25 | 253 | 3.2 | 11.3 | 0.00 | 0.00 | 0.00 | 38 | 1035.8 |
| 20260505203003 | 25 | 286 | 4.8 | 11.3 | 0.00 | 0.00 | 0.00 | 37 | 1035.8 |
| 20260505202503 | 25 | 276 | 6.4 | 16.1 | 0.00 | 0.00 | 0.00 | 38 | 1035.9 |
| 20260505202002 | 25 | 204 | 1.6 | 16.1 | 0.00 | 0.00 | 0.00 | 41 | 1036.0 |
| 20260505201503 | 25 | 281 | 6.4 | 16.1 | 0.00 | 0.00 | 0.00 | 39 | 1036.0 |
| 20260505201002 | 25 | 268 | 4.8 | 12.9 | 0.00 | 0.00 | 0.00 | 38 | 1036.1 |
| 20260505200503 | 25 | 202 | 3.2 | 12.9 | 0.00 | 0.00 | 0.00 | 40 | 1036.1 |
| 20260505200002 | 25 | 280 | 6.4 | 14.5 | 0.00 | 0.00 | 0.00 | 40 | 1036.3 |
| 20260505195502 | 25 | 261 | 6.4 | 14.5 | 0.00 | 0.00 | 0.00 | 38 | 1036.3 |
| 20260505195003 | 25 | 184 | 3.2 | 12.9 | 0.00 | 0.00 | 0.00 | 39 | 1036.4 |
| 20260505194503 | 24 | 242 | 1.6 | 14.5 | 0.00 | 0.00 | 0.00 | 40 | 1036.6 |
| 20260505194003 | 24 | 264 | 4.8 | 14.5 | 0.00 | 0.00 | 0.00 | 38 | 1036.9 |
| 20260505193502 | 24 | 281 | 4.8 | 14.5 | 0.00 | 0.00 | 0.00 | 38 | 1037.0 |
| 20260505193003 | 26 | 301 | 3.2 | 8.0 | 0.00 | 0.00 | 0.00 | 39 | 1036.9 |
| 20260505192523 | 23 | 255 | 1.6 | 11.3 | 0.00 | 0.00 | 0.00 | 42 | 1037.2 |
| 20260505192003 | 23 | 268 | 6.4 | 11.3 | 0.00 | 0.00 | 0.00 | 39 | 1037.2 |
| 20260505191502 | 24 | 188 | 1.6 | 9.7 | 0.00 | 0.00 | 0.00 | 100 | 1036.5 |
| 20260505191003 | 23 | 275 | 4.8 | 9.7 | 0.00 | 0.00 | 0.00 | 40 | 1037.4 |
| 20260505190502 | 23 | 272 | 4.8 | 9.7 | 0.00 | 0.00 | 0.00 | 39 | 1037.4 |
| 20260505190003 | 23 | 265 | 1.6 | 14.5 | 0.00 | 0.00 | 0.00 | 40 | 1037.4 |
| 20260505185502 | 23 | 259 | 6.4 | 14.5 | 0.00 | 0.00 | 0.00 | 37 | 1037.6 |
| 20260505185003 | 24 | 259 | 4.8 | 12.9 | 0.00 | 0.00 | 0.00 | 40 | 1037.6 |
| 20260505184502 | 24 | 271 | 4.8 | 9.7 | 0.00 | 0.00 | 0.00 | 38 | 1037.6 |
| 20260505184003 | 24 | 294 | 3.2 | 9.7 | 0.00 | 0.00 | 0.00 | 42 | 1037.6 |
| 20260505183502 | 23 | 283 | 4.8 | 12.9 | 0.00 | 0.00 | 0.00 | 40 | 1037.6 |
| 20260505183002 | 24 | 257 | 4.8 | 16.1 | 0.00 | 0.00 | 0.00 | 40 | 1037.7 |
| 20260505182503 | 24 | 235 | 8.0 | 16.1 | 0.00 | 0.00 | 0.00 | 38 | 1037.6 |
| 20260505182002 | 24 | 318 | 3.2 | 14.5 | 0.00 | 0.00 | 0.00 | 40 | 1037.6 |
| 20260505181503 | 23 | 304 | 4.8 | 16.1 | 0.00 | 0.00 | 0.00 | 40 | 1037.7 |
| 20260505181002 | 23 | 243 | 6.4 | 16.1 | 0.00 | 0.00 | 0.00 | 42 | 1037.8 |
| 20260505180503 | 24 | 274 | 3.2 | 9.7 | 0.00 | 0.00 | 0.00 | 40 | 1037.8 |
| 20260505180002 | 24 | 276 | 4.8 | 11.3 | 0.00 | 0.00 | 0.00 | 42 | 1037.9 |
| 20260505175503 | 24 | 290 | 1.6 | 12.9 | 0.00 | 0.00 | 0.00 | 42 | 1038.1 |
| 20260505175024 | 24 | 270 | 8.0 | 12.9 | 0.00 | 0.00 | 0.00 | 41 | 1038.2 |
| 20260505174503 | 24 | 124 | 3.2 | 17.7 | 0.00 | 0.00 | 0.00 | 41 | 1038.2 |
| 20260505174023 | 24 | 290 | 6.4 | 17.7 | 0.00 | 0.00 | 0.00 | 40 | 1038.4 |
| 20260505173503 | 24 | 130 | 6.4 | 22.5 | 0.00 | 0.00 | 0.00 | 41 | 1038.2 |
| 20260505173003 | 23 | 219 | 1.6 | 22.5 | 0.00 | 0.00 | 0.00 | 43 | 1038.5 |
| 20260505172502 | 23 | 243 | 1.6 | 19.3 | 0.00 | 0.00 | 0.00 | 44 | 1038.5 |
| 20260505172003 | 23 | 263 | 4.8 | 20.9 | 0.00 | 0.00 | 0.00 | 44 | 1038.6 |
| 20260505171502 | 23 | 284 | 4.8 | 20.9 | 0.00 | 0.00 | 0.00 | 44 | 1038.6 |
| 20260505171003 | 23 | 267 | 3.2 | 9.7 | 0.00 | 0.00 | 0.00 | 46 | 1038.6 |
| 20260505170502 | 23 | 297 | 4.8 | 9.7 | 0.00 | 0.00 | 0.00 | 48 | 1038.6 |
| 20260505170003 | 23 | 143 | 3.2 | 8.0 | 0.00 | 0.00 | 0.00 | 50 | 1038.7 |
| 20260505165502 | 22 | 258 | 3.2 | 14.5 | 0.00 | 0.00 | 0.00 | 49 | 1038.8 |
| 20260505165003 | 22 | 273 | 3.2 | 14.5 | 0.00 | 0.00 | 0.00 | 49 | 1038.7 |
| 20260505164502 | 23 | 282 | 6.4 | 14.5 | 0.00 | 0.00 | 0.00 | 49 | 1038.6 |
| 20260505164002 | 23 | 303 | 6.4 | 16.1 | 0.00 | 0.00 | 0.00 | 48 | 1038.6 |
| 20260505163503 | 23 | 307 | 6.4 | 16.1 | 0.00 | 0.00 | 0.00 | 49 | 1038.6 |
| 20260505163002 | 22 | 251 | 4.8 | 16.1 | 0.00 | 0.00 | 0.00 | 48 | 1038.6 |
| 20260505162503 | 22 | 208 | 6.4 | 16.1 | 0.00 | 0.00 | 0.00 | 48 | 1038.5 |
| 20260505162023 | 23 | 233 | 6.4 | 11.3 | 0.00 | 0.00 | 0.00 | 47 | 1038.6 |
| 20260505161503 | 22 | 153 | 3.2 | 17.7 | 0.00 | 0.00 | 0.00 | 49 | 1038.7 |
| 20260505161002 | 22 | 267 | 3.2 | 17.7 | 0.00 | 0.00 | 0.00 | 48 | 1038.8 |
| 20260505160503 | 22 | 287 | 1.6 | 16.1 | 0.00 | 0.00 | 0.00 | 47 | 1038.8 |
| 20260505153003 | 21 | 121 | 1.6 | 6.4 | 0.00 | 0.00 | 0.00 | 57 | 1039.0 |
| 20260505152502 | 21 | 322 | 1.6 | 6.4 | 0.00 | 0.00 | 0.00 | 57 | 1039.0 |
| 20260505152002 | 21 | 254 | 0.0 | 4.8 | 0.00 | 0.00 | 0.00 | 59 | 1039.1 |
| 20260505151503 | 21 | 319 | 1.6 | 4.8 | 0.00 | 0.00 | 0.00 | 58 | 1038.9 |
| 20260505151002 | 21 | 117 | 0.0 | 8.0 | 0.00 | 0.00 | 0.00 | 60 | 1038.9 |
| 20260505150503 | 21 | 112 | 1.6 | 8.0 | 0.00 | 0.00 | 0.00 | 59 | 1039.0 |
| 20260505140503 | 18 | 22 | 0.0 | 0.0 | 0.00 | 0.00 | 0.00 | 65 | 1039.7 |
| 20260505125003 | 13 | 32 | 0.0 | 0.0 | 0.00 | 0.00 | 0.00 | 85 | 1039.0 |
| 20260505124502 | 13 | 32 | 0.0 | 0.0 | 0.00 | 0.00 | 0.00 | 87 | 1039.0 |
| 20260505124024 | 12 | 32 | 0.0 | 0.0 | 0.00 | 0.00 | 0.00 | 88 | 1038.8 |
| 20260505123503 | 12 | 32 | 0.0 | 0.0 | 0.00 | 0.00 | 0.00 | 88 | 1038.8 |
| 20260505123002 | 11 | 32 | 0.0 | 0.0 | 0.00 | 0.00 | 0.00 | 89 | 1038.9 |
| 20260505122503 | 11 | 32 | 0.0 | 0.0 | 0.00 | 0.00 | 0.00 | 90 | 1038.9 |
| 20260505122002 | 11 | 32 | 0.0 | 0.0 | 0.00 | 0.00 | 0.00 | 91 | 1038.8 |
| 20260505121503 | 11 | 32 | 0.0 | 0.0 | 0.00 | 0.00 | 0.00 | 92 | 1038.7 |
| 20260505121024 | 10 | 32 | 0.0 | 0.0 | 0.00 | 0.00 | 0.00 | 93 | 1038.8 |
| 20260505120524 | 10 | 32 | 0.0 | 0.0 | 0.00 | 0.00 | 0.00 | 95 | 1038.7 |
| 20260505120003 | 10 | 32 | 0.0 | 0.0 | 0.00 | 0.00 | 0.00 | 95 | 1038.6 |
| 20260505115503 | 10 | 32 | 0.0 | 0.0 | 0.00 | 0.00 | 0.00 | 95 | 1038.5 |
| 20260505115003 | 9 | 32 | 0.0 | 0.0 | 0.00 | 0.00 | 0.00 | 95 | 1038.5 |
| 20260505114503 | 9 | 32 | 0.0 | 0.0 | 0.00 | 0.00 | 0.00 | 95 | 1038.6 |
| 20260505114024 | 9 | 32 | 0.0 | 0.0 | 0.00 | 0.00 | 0.00 | 95 | 1038.5 |
| 20260505113502 | 8 | 32 | 0.0 | 0.0 | 0.00 | 0.00 | 0.00 | 95 | 1038.3 |
| 20260505113003 | 8 | 32 | 0.0 | 0.0 | 0.00 | 0.00 | 0.00 | 95 | 1038.3 |
| 20260505112503 | 8 | 32 | 0.0 | 0.0 | 0.00 | 0.00 | 0.00 | 95 | 1038.3 |
| 20260505112002 | 8 | 32 | 0.0 | 0.0 | 0.00 | 0.00 | 0.00 | 95 | 1038.1 |
| 20260505111503 | 8 | 32 | 0.0 | 0.0 | 0.00 | 0.00 | 0.00 | 95 | 1038.0 |
| 20260505111002 | 8 | 32 | 0.0 | 0.0 | 0.00 | 0.00 | 0.00 | 95 | 1038.0 |
| 20260505102003 | 8 | 32 | 0.0 | 0.0 | 0.00 | 0.00 | 0.00 | 94 | 1037.7 |
| 20260505101524 | 8 | 32 | 0.0 | 0.0 | 0.00 | 0.00 | 0.00 | 94 | 1037.8 |
| 20260505101024 | 8 | 32 | 0.0 | 0.0 | 0.00 | 0.00 | 0.00 | 94 | 1037.8 |
| 20260505100502 | 8 | 32 | 0.0 | 0.0 | 0.00 | 0.00 | 0.00 | 93 | 1037.8 |
| 20260505100003 | 9 | 32 | 0.0 | 0.0 | 0.00 | 0.00 | 0.00 | 93 | 1037.8 |
| 20260505095524 | 9 | 32 | 0.0 | 3.2 | 0.00 | 0.00 | 0.00 | 93 | 1037.9 |
| 20260505095024 | 9 | 32 | 0.0 | 3.2 | 0.00 | 0.00 | 0.00 | 93 | 1038.0 |
| 20260505094503 | 9 | 60 | 0.0 | 1.6 | 0.00 | 0.00 | 0.00 | 93 | 1037.9 |
| 20260505094003 | 9 | 164 | 0.0 | 0.0 | 0.00 | 0.00 | 0.00 | 93 | 1037.9 |
| 20260505093002 | 9 | 164 | 0.0 | 0.0 | 0.00 | 0.00 | 0.00 | 92 | 1037.9 |
| 20260505092503 | 9 | 164 | 0.0 | 0.0 | 0.00 | 0.00 | 0.00 | 92 | 1037.8 |
| 20260505092002 | 9 | 164 | 0.0 | 0.0 | 0.00 | 0.00 | 0.00 | 92 | 1037.8 |
| 20260505091503 | 9 | 164 | 0.0 | 0.0 | 0.00 | 0.00 | 0.00 | 92 | 1037.8 |
| 20260505091002 | 9 | 164 | 0.0 | 0.0 | 0.00 | 0.00 | 0.00 | 92 | 1037.9 |
| 20260505090503 | 10 | 164 | 0.0 | 3.2 | 0.00 | 0.00 | 0.00 | 92 | 1037.8 |
| 20260505090024 | 10 | 164 | 0.0 | 3.2 | 0.00 | 0.00 | 0.00 | 92 | 1037.8 |
| 20260505085503 | 10 | 42 | 0.0 | 3.2 | 0.00 | 0.00 | 0.00 | 92 | 1038.0 |
| 20260505085003 | 10 | 326 | 1.6 | 4.8 | 0.00 | 0.00 | 0.00 | 92 | 1037.9 |
| 20260505084502 | 10 | 229 | 0.0 | 4.8 | 0.00 | 0.00 | 0.00 | 92 | 1038.1 |
| 20260505084003 | 10 | 63 | 0.0 | 4.8 | 0.00 | 0.00 | 0.00 | 92 | 1038.1 |
| 20260505083502 | 10 | 33 | 0.0 | 0.0 | 0.00 | 0.00 | 0.00 | 91 | 1038.0 |
| 20260505083003 | 10 | 33 | 0.0 | 0.0 | 0.00 | 0.00 | 0.00 | 91 | 1038.0 |
| 20260505082503 | 10 | 33 | 0.0 | 0.0 | 0.00 | 0.00 | 0.00 | 91 | 1038.0 |
| 20260505082003 | 10 | 33 | 0.0 | 0.0 | 0.00 | 0.00 | 0.00 | 91 | 1037.9 |
| 20260505081503 | 10 | 33 | 0.0 | 0.0 | 0.00 | 0.00 | 0.00 | 91 | 1037.9 |
| 20260505081003 | 10 | 33 | 0.0 | 0.0 | 0.00 | 0.00 | 0.00 | 90 | 1038.1 |
| 20260505080524 | 10 | 33 | 0.0 | 0.0 | 0.00 | 0.00 | 0.00 | 90 | 1038.0 |
| 20260505080002 | 10 | 33 | 0.0 | 0.0 | 0.00 | 0.00 | 0.00 | 90 | 1038.0 |
| 20260505075503 | 10 | 33 | 0.0 | 0.0 | 0.00 | 0.00 | 0.00 | 90 | 1037.9 |
| 20260505075002 | 10 | 33 | 0.0 | 0.0 | 0.00 | 0.00 | 0.00 | 89 | 1037.9 |
| 20260505074503 | 10 | 33 | 0.0 | 0.0 | 0.00 | 0.00 | 0.00 | 89 | 1037.9 |
| 20260505074002 | 10 | 33 | 0.0 | 0.0 | 0.00 | 0.00 | 0.00 | 89 | 1037.9 |
| 20260505073503 | 10 | 33 | 0.0 | 0.0 | 0.00 | 0.00 | 0.00 | 89 | 1038.0 |
| 20260505073002 | 10 | 33 | 0.0 | 0.0 | 0.00 | 0.00 | 0.00 | 89 | 1037.9 |
| 20260505072502 | 10 | 33 | 0.0 | 0.0 | 0.00 | 0.00 | 0.00 | 89 | 1038.0 |
| 20260505072002 | 10 | 33 | 0.0 | 0.0 | 0.00 | 0.00 | 0.00 | 88 | 1038.0 |
| 20260505071503 | 10 | 33 | 0.0 | 0.0 | 0.00 | 0.00 | 0.00 | 88 | 1038.0 |
| 20260505071002 | 10 | 33 | 0.0 | 0.0 | 0.00 | 0.00 | 0.00 | 88 | 1037.9 |
| 20260505070523 | 11 | 33 | 0.0 | 0.0 | 0.00 | 0.00 | 0.00 | 88 | 1037.9 |